Year,Month,Day,Hour,Minute,Value (Times are PST for temperature in C)
2021,06,07,00,00,8.10
2021,06,07,00,01,8.10
2021,06,07,00,02,8.10
2021,06,07,00,03,8.10
2021,06,07,00,04,8.10
2021,06,07,00,05,8.10
2021,06,07,00,06,8.10
2021,06,07,00,07,8.00
2021,06,07,00,08,8.00
2021,06,07,00,09,8.00
2021,06,07,00,10,7.90
2021,06,07,00,11,7.90
2021,06,07,00,12,7.90
2021,06,07,00,13,7.90
2021,06,07,00,14,7.80
2021,06,07,00,15,7.80
2021,06,07,00,16,7.80
2021,06,07,00,17,7.80
2021,06,07,00,18,7.80
2021,06,07,00,19,7.80
2021,06,07,00,20,7.80
2021,06,07,00,21,7.80
2021,06,07,00,22,7.80
2021,06,07,00,23,7.80
2021,06,07,00,24,7.80
2021,06,07,00,25,7.70
2021,06,07,00,26,7.70
2021,06,07,00,27,7.70
2021,06,07,00,28,7.70
2021,06,07,00,29,7.70
2021,06,07,00,30,7.60
2021,06,07,00,31,7.60
2021,06,07,00,32,7.60
2021,06,07,00,33,7.60
2021,06,07,00,34,7.60
2021,06,07,00,35,7.60
2021,06,07,00,36,7.60
2021,06,07,00,37,7.60
2021,06,07,00,38,7.50
2021,06,07,00,39,7.50
2021,06,07,00,40,7.50
2021,06,07,00,41,7.50
2021,06,07,00,42,7.50
2021,06,07,00,43,7.50
2021,06,07,00,44,7.40
2021,06,07,00,45,7.40
2021,06,07,00,46,7.30
2021,06,07,00,47,7.30
2021,06,07,00,48,7.30
2021,06,07,00,49,7.20
2021,06,07,00,50,7.20
2021,06,07,00,51,7.20
2021,06,07,00,52,7.20
2021,06,07,00,53,7.20
2021,06,07,00,54,7.10
2021,06,07,00,55,7.10
2021,06,07,00,56,7.10
2021,06,07,00,57,7.10
2021,06,07,00,58,7.10
2021,06,07,00,59,7.10
2021,06,07,01,00,7.10
2021,06,07,01,01,7.10
2021,06,07,01,02,7.10
2021,06,07,01,03,7.10
2021,06,07,01,04,7.10
2021,06,07,01,05,7.10
2021,06,07,01,06,7.10
2021,06,07,01,07,7.10
2021,06,07,01,08,7.10
2021,06,07,01,09,7.10
2021,06,07,01,10,7.10
2021,06,07,01,11,7.10
2021,06,07,01,12,7.10
2021,06,07,01,13,7.10
2021,06,07,01,14,7.10
2021,06,07,01,15,7.10
2021,06,07,01,16,7.10
2021,06,07,01,17,7.10
2021,06,07,01,18,7.00
2021,06,07,01,19,7.00
2021,06,07,01,20,7.00
2021,06,07,01,21,6.90
2021,06,07,01,22,6.90
2021,06,07,01,23,6.90
2021,06,07,01,24,6.80
2021,06,07,01,25,6.80
2021,06,07,01,26,6.80
2021,06,07,01,27,6.80
2021,06,07,01,28,6.70
2021,06,07,01,29,6.70
2021,06,07,01,30,6.70
2021,06,07,01,31,6.70
2021,06,07,01,32,6.70
2021,06,07,01,33,6.70
2021,06,07,01,34,6.70
2021,06,07,01,35,6.70
2021,06,07,01,36,6.60
2021,06,07,01,37,6.60
2021,06,07,01,38,6.50
2021,06,07,01,39,6.50
2021,06,07,01,40,6.50
2021,06,07,01,41,6.50
2021,06,07,01,42,6.50
2021,06,07,01,43,6.40
2021,06,07,01,44,6.40
2021,06,07,01,45,6.40
2021,06,07,01,46,6.40
2021,06,07,01,47,6.40
2021,06,07,01,48,6.40
2021,06,07,01,49,6.40
2021,06,07,01,50,6.30
2021,06,07,01,51,6.30
2021,06,07,01,52,6.30
2021,06,07,01,53,6.30
2021,06,07,01,54,6.30
2021,06,07,01,55,6.30
2021,06,07,01,56,6.20
2021,06,07,01,57,6.20
2021,06,07,01,58,6.20
2021,06,07,01,59,6.20
2021,06,07,02,00,6.20
2021,06,07,02,01,6.20
2021,06,07,02,02,6.20
2021,06,07,02,03,6.20
2021,06,07,02,04,6.30
2021,06,07,02,05,6.30
2021,06,07,02,06,6.30
2021,06,07,02,07,6.30
2021,06,07,02,08,6.30
2021,06,07,02,09,6.30
2021,06,07,02,10,6.30
2021,06,07,02,11,6.30
2021,06,07,02,12,6.30
2021,06,07,02,13,6.30
2021,06,07,02,14,6.30
2021,06,07,02,15,6.20
2021,06,07,02,16,6.20
2021,06,07,02,17,6.20
2021,06,07,02,18,6.20
2021,06,07,02,19,6.20
2021,06,07,02,20,6.20
2021,06,07,02,21,6.20
2021,06,07,02,22,6.10
2021,06,07,02,23,6.10
2021,06,07,02,24,6.10
2021,06,07,02,25,6.10
2021,06,07,02,26,6.10
2021,06,07,02,27,6.10
2021,06,07,02,28,6.10
2021,06,07,02,29,6.10
2021,06,07,02,30,6.10
2021,06,07,02,31,6.10
2021,06,07,02,32,6.10
2021,06,07,02,33,6.10
2021,06,07,02,34,6.10
2021,06,07,02,35,6.00
2021,06,07,02,36,6.00
2021,06,07,02,37,6.00
2021,06,07,02,38,6.00
2021,06,07,02,39,6.00
2021,06,07,02,40,6.00
2021,06,07,02,41,6.00
2021,06,07,02,42,5.90
2021,06,07,02,43,5.90
2021,06,07,02,44,5.90
2021,06,07,02,45,5.90
2021,06,07,02,46,5.90
2021,06,07,02,47,5.90
2021,06,07,02,48,6.00
2021,06,07,02,49,6.00
2021,06,07,02,50,6.10
2021,06,07,02,51,6.10
2021,06,07,02,52,6.10
2021,06,07,02,53,6.10
2021,06,07,02,54,6.10
2021,06,07,02,55,6.00
2021,06,07,02,56,6.00
2021,06,07,02,57,5.90
2021,06,07,02,58,5.90
2021,06,07,02,59,5.90
2021,06,07,03,00,5.80
2021,06,07,03,01,5.80
2021,06,07,03,02,5.80
2021,06,07,03,03,5.70
2021,06,07,03,04,5.70
2021,06,07,03,05,5.60
2021,06,07,03,06,5.60
2021,06,07,03,07,5.60
2021,06,07,03,08,5.50
2021,06,07,03,09,5.50
2021,06,07,03,10,5.40
2021,06,07,03,11,5.40
2021,06,07,03,12,5.40
2021,06,07,03,13,5.40
2021,06,07,03,14,5.30
2021,06,07,03,15,5.30
2021,06,07,03,16,5.30
2021,06,07,03,17,5.30
2021,06,07,03,18,5.30
2021,06,07,03,19,5.30
2021,06,07,03,20,5.30
2021,06,07,03,21,5.30
2021,06,07,03,22,5.30
2021,06,07,03,23,5.30
2021,06,07,03,24,5.30
2021,06,07,03,25,5.20
2021,06,07,03,26,5.20
2021,06,07,03,27,5.20
2021,06,07,03,28,5.20
2021,06,07,03,29,5.20
2021,06,07,03,30,5.20
2021,06,07,03,31,5.20
2021,06,07,03,32,5.20
2021,06,07,03,33,5.10
2021,06,07,03,34,5.10
2021,06,07,03,35,5.10
2021,06,07,03,36,5.10
2021,06,07,03,37,5.10
2021,06,07,03,38,5.10
2021,06,07,03,39,5.10
2021,06,07,03,40,5.10
2021,06,07,03,41,5.00
2021,06,07,03,42,5.00
2021,06,07,03,43,5.00
2021,06,07,03,44,5.00
2021,06,07,03,45,4.90
2021,06,07,03,46,4.90
2021,06,07,03,47,4.90
2021,06,07,03,48,4.90
2021,06,07,03,49,4.90
2021,06,07,03,50,4.90
2021,06,07,03,51,4.80
2021,06,07,03,52,4.80
2021,06,07,03,53,4.80
2021,06,07,03,54,4.80
2021,06,07,03,55,4.80
2021,06,07,03,56,4.80
2021,06,07,03,57,4.80
2021,06,07,03,58,4.80
2021,06,07,03,59,4.80
2021,06,07,04,00,4.70
2021,06,07,04,01,4.70
2021,06,07,04,02,4.70
2021,06,07,04,03,4.70
2021,06,07,04,04,4.70
2021,06,07,04,05,4.70
2021,06,07,04,06,4.70
2021,06,07,04,07,4.70
2021,06,07,04,08,4.70
2021,06,07,04,09,4.70
2021,06,07,04,10,4.70
2021,06,07,04,11,4.70
2021,06,07,04,12,4.70
2021,06,07,04,13,4.70
2021,06,07,04,14,4.70
2021,06,07,04,15,4.60
2021,06,07,04,16,4.60
2021,06,07,04,17,4.60
2021,06,07,04,18,4.60
2021,06,07,04,19,4.60
2021,06,07,04,20,4.60
2021,06,07,04,21,4.60
2021,06,07,04,22,4.50
2021,06,07,04,23,4.50
2021,06,07,04,24,4.50
2021,06,07,04,25,4.50
2021,06,07,04,26,4.50
2021,06,07,04,27,4.50
2021,06,07,04,28,4.50
2021,06,07,04,29,4.50
2021,06,07,04,30,4.50
2021,06,07,04,31,4.50
2021,06,07,04,32,4.60
2021,06,07,04,33,4.60
2021,06,07,04,34,4.60
2021,06,07,04,35,4.60
2021,06,07,04,36,4.60
2021,06,07,04,37,4.60
2021,06,07,04,38,4.60
2021,06,07,04,39,4.50
2021,06,07,04,40,4.50
2021,06,07,04,41,4.50
2021,06,07,04,42,4.50
2021,06,07,04,43,4.50
2021,06,07,04,44,4.50
2021,06,07,04,45,4.50
2021,06,07,04,46,4.50
2021,06,07,04,47,4.50
2021,06,07,04,48,4.40
2021,06,07,04,49,4.40
2021,06,07,04,50,4.40
2021,06,07,04,51,4.40
2021,06,07,04,52,4.40
2021,06,07,04,53,4.40
2021,06,07,04,54,4.40
2021,06,07,04,55,4.30
2021,06,07,04,56,4.30
2021,06,07,04,57,4.30
2021,06,07,04,58,4.30
2021,06,07,04,59,4.30
2021,06,07,05,00,4.30
2021,06,07,05,01,4.30
2021,06,07,05,02,4.30
2021,06,07,05,03,4.30
2021,06,07,05,04,4.30
2021,06,07,05,05,4.30
2021,06,07,05,06,4.30
2021,06,07,05,07,4.30
2021,06,07,05,08,4.30
2021,06,07,05,09,4.30
2021,06,07,05,10,4.30
2021,06,07,05,11,4.30
2021,06,07,05,12,4.30
2021,06,07,05,13,4.30
2021,06,07,05,14,4.30
2021,06,07,05,15,4.30
2021,06,07,05,16,4.30
2021,06,07,05,17,4.30
2021,06,07,05,18,4.30
2021,06,07,05,19,4.30
2021,06,07,05,20,4.30
2021,06,07,05,21,4.30
2021,06,07,05,22,4.30
2021,06,07,05,23,4.40
2021,06,07,05,24,4.40
2021,06,07,05,25,4.50
2021,06,07,05,26,4.50
2021,06,07,05,27,4.60
2021,06,07,05,28,4.60
2021,06,07,05,29,4.60
2021,06,07,05,30,4.60
2021,06,07,05,31,4.60
2021,06,07,05,32,4.60
2021,06,07,05,33,4.60
2021,06,07,05,34,4.60
2021,06,07,05,35,4.60
2021,06,07,05,36,4.60
2021,06,07,05,37,4.60
2021,06,07,05,38,4.60
2021,06,07,05,39,4.60
2021,06,07,05,40,4.60
2021,06,07,05,41,4.60
2021,06,07,05,42,4.60
2021,06,07,05,43,4.60
2021,06,07,05,44,4.60
2021,06,07,05,45,4.60
2021,06,07,05,46,4.60
2021,06,07,05,47,4.60
2021,06,07,05,48,4.60
2021,06,07,05,49,4.60
2021,06,07,05,50,4.60
2021,06,07,05,51,4.60
2021,06,07,05,52,4.60
2021,06,07,05,53,4.60
2021,06,07,05,54,4.60
2021,06,07,05,55,4.60
2021,06,07,05,56,4.60
2021,06,07,05,57,4.60
2021,06,07,05,58,4.60
2021,06,07,05,59,4.60
2021,06,07,06,00,4.60
2021,06,07,06,01,4.60
2021,06,07,06,02,4.60
2021,06,07,06,03,4.60
2021,06,07,06,04,4.70
2021,06,07,06,05,4.70
2021,06,07,06,06,4.70
2021,06,07,06,07,4.70
2021,06,07,06,08,4.70
2021,06,07,06,09,4.70
2021,06,07,06,10,4.70
2021,06,07,06,11,4.80
2021,06,07,06,12,4.80
2021,06,07,06,13,4.80
2021,06,07,06,14,4.80
2021,06,07,06,15,4.80
2021,06,07,06,16,4.80
2021,06,07,06,17,4.80
2021,06,07,06,18,4.90
2021,06,07,06,19,4.90
2021,06,07,06,20,4.90
2021,06,07,06,21,4.90
2021,06,07,06,22,4.90
2021,06,07,06,23,4.90
2021,06,07,06,24,4.90
2021,06,07,06,25,5.00
2021,06,07,06,26,5.00
2021,06,07,06,27,5.10
2021,06,07,06,28,5.10
2021,06,07,06,29,5.10
2021,06,07,06,30,5.20
2021,06,07,06,31,5.20
2021,06,07,06,32,5.20
2021,06,07,06,33,5.20
2021,06,07,06,34,5.20
2021,06,07,06,35,5.20
2021,06,07,06,36,5.20
2021,06,07,06,37,5.20
2021,06,07,06,38,5.20
2021,06,07,06,39,5.20
2021,06,07,06,40,5.20
2021,06,07,06,41,5.20
2021,06,07,06,42,5.30
2021,06,07,06,43,5.30
2021,06,07,06,44,5.30
2021,06,07,06,45,5.30
2021,06,07,06,46,5.40
2021,06,07,06,47,5.40
2021,06,07,06,48,5.40
2021,06,07,06,49,5.50
2021,06,07,06,50,5.50
2021,06,07,06,51,5.60
2021,06,07,06,52,5.60
2021,06,07,06,53,5.60
2021,06,07,06,54,5.70
2021,06,07,06,55,5.70
2021,06,07,06,56,5.70
2021,06,07,06,57,5.80
2021,06,07,06,58,5.80
2021,06,07,06,59,5.80
2021,06,07,07,00,5.80
2021,06,07,07,01,5.90
2021,06,07,07,02,6.00
2021,06,07,07,03,6.10
2021,06,07,07,04,6.10
2021,06,07,07,05,6.20
2021,06,07,07,06,6.30
2021,06,07,07,07,6.30
2021,06,07,07,08,6.40
2021,06,07,07,09,6.40
2021,06,07,07,10,6.50
2021,06,07,07,11,6.50
2021,06,07,07,12,6.60
2021,06,07,07,13,6.60
2021,06,07,07,14,6.70
2021,06,07,07,15,6.70
2021,06,07,07,16,6.80
2021,06,07,07,17,6.80
2021,06,07,07,18,6.90
2021,06,07,07,19,6.90
2021,06,07,07,20,7.00
2021,06,07,07,21,7.00
2021,06,07,07,22,7.10
2021,06,07,07,23,7.20
2021,06,07,07,24,7.40
2021,06,07,07,25,7.50
2021,06,07,07,26,7.70
2021,06,07,07,27,7.80
2021,06,07,07,28,7.90
2021,06,07,07,29,7.90
2021,06,07,07,30,8.00
2021,06,07,07,31,8.00
2021,06,07,07,32,8.10
2021,06,07,07,33,8.20
2021,06,07,07,34,8.20
2021,06,07,07,35,8.30
2021,06,07,07,36,8.40
2021,06,07,07,37,8.40
2021,06,07,07,38,8.40
2021,06,07,07,39,8.40
2021,06,07,07,40,8.50
2021,06,07,07,41,8.50
2021,06,07,07,42,8.60
2021,06,07,07,43,8.70
2021,06,07,07,44,8.70
2021,06,07,07,45,8.90
2021,06,07,07,46,9.00
2021,06,07,07,47,9.00
2021,06,07,07,48,9.10
2021,06,07,07,49,9.10
2021,06,07,07,50,9.20
2021,06,07,07,51,9.20
2021,06,07,07,52,9.20
2021,06,07,07,53,9.30
2021,06,07,07,54,9.30
2021,06,07,07,55,9.40
2021,06,07,07,56,9.40
2021,06,07,07,57,9.50
2021,06,07,07,58,9.50
2021,06,07,07,59,9.50
2021,06,07,08,00,9.40
2021,06,07,08,01,9.50
2021,06,07,08,02,9.50
2021,06,07,08,03,9.50
2021,06,07,08,04,9.60
2021,06,07,08,05,9.60
2021,06,07,08,06,9.70
2021,06,07,08,07,9.70
2021,06,07,08,08,9.80
2021,06,07,08,09,9.80
2021,06,07,08,10,9.90
2021,06,07,08,11,9.90
2021,06,07,08,12,10.00
2021,06,07,08,13,10.00
2021,06,07,08,14,10.00
2021,06,07,08,15,10.00
2021,06,07,08,16,10.10
2021,06,07,08,17,10.00
2021,06,07,08,18,10.00
2021,06,07,08,19,9.90
2021,06,07,08,20,9.90
2021,06,07,08,21,9.90
2021,06,07,08,22,10.00
2021,06,07,08,23,10.10
2021,06,07,08,24,10.10
2021,06,07,08,25,10.20
2021,06,07,08,26,10.20
2021,06,07,08,27,10.20
2021,06,07,08,28,10.20
2021,06,07,08,29,10.20
2021,06,07,08,30,10.20
2021,06,07,08,31,10.30
2021,06,07,08,32,10.40
2021,06,07,08,33,10.50
2021,06,07,08,34,10.50
2021,06,07,08,35,10.50
2021,06,07,08,36,10.60
2021,06,07,08,37,10.60
2021,06,07,08,38,10.70
2021,06,07,08,39,10.80
2021,06,07,08,40,10.80
2021,06,07,08,41,10.90
2021,06,07,08,42,10.90
2021,06,07,08,43,11.00
2021,06,07,08,44,11.10
2021,06,07,08,45,11.00
2021,06,07,08,46,10.90
2021,06,07,08,47,10.80
2021,06,07,08,48,10.80
2021,06,07,08,49,10.80
2021,06,07,08,50,10.80
2021,06,07,08,51,10.90
2021,06,07,08,52,10.90
2021,06,07,08,53,10.90
2021,06,07,08,54,10.90
2021,06,07,08,55,10.90
2021,06,07,08,56,11.00
2021,06,07,08,57,11.10
2021,06,07,08,58,11.20
2021,06,07,08,59,11.30
2021,06,07,09,00,11.30
2021,06,07,09,01,11.40
2021,06,07,09,02,11.50
2021,06,07,09,03,11.50
2021,06,07,09,04,11.60
2021,06,07,09,05,11.60
2021,06,07,09,06,11.70
2021,06,07,09,07,11.70
2021,06,07,09,08,11.80
2021,06,07,09,09,11.80
2021,06,07,09,10,11.80
2021,06,07,09,11,11.90
2021,06,07,09,12,11.90
2021,06,07,09,13,12.00
2021,06,07,09,14,12.00
2021,06,07,09,15,12.00
2021,06,07,09,16,12.00
2021,06,07,09,17,12.10
2021,06,07,09,18,12.10
2021,06,07,09,19,12.00
2021,06,07,09,20,12.00
2021,06,07,09,21,12.10
2021,06,07,09,22,12.00
2021,06,07,09,23,12.00
2021,06,07,09,24,12.00
2021,06,07,09,25,12.00
2021,06,07,09,26,12.00
2021,06,07,09,27,12.00
2021,06,07,09,28,11.90
2021,06,07,09,29,11.90
2021,06,07,09,30,11.90
2021,06,07,09,31,11.80
2021,06,07,09,32,11.90
2021,06,07,09,33,11.90
2021,06,07,09,34,11.90
2021,06,07,09,35,11.90
2021,06,07,09,36,11.90
2021,06,07,09,37,11.90
2021,06,07,09,38,11.80
2021,06,07,09,39,11.80
2021,06,07,09,40,11.80
2021,06,07,09,41,11.80
2021,06,07,09,42,11.70
2021,06,07,09,43,11.70
2021,06,07,09,44,11.70
2021,06,07,09,45,11.70
2021,06,07,09,46,11.70
2021,06,07,09,47,11.70
2021,06,07,09,48,11.70
2021,06,07,09,49,11.80
2021,06,07,09,50,11.90
2021,06,07,09,51,12.00
2021,06,07,09,52,12.30
2021,06,07,09,53,12.40
2021,06,07,09,54,12.60
2021,06,07,09,55,12.80
2021,06,07,09,56,12.90
2021,06,07,09,57,12.90
2021,06,07,09,58,12.90
2021,06,07,09,59,12.90
2021,06,07,10,00,12.90
2021,06,07,10,01,12.90
2021,06,07,10,02,12.80
2021,06,07,10,03,12.80
2021,06,07,10,04,12.70
2021,06,07,10,05,12.80
2021,06,07,10,06,12.80
2021,06,07,10,07,12.80
2021,06,07,10,08,12.80
2021,06,07,10,09,12.80
2021,06,07,10,10,12.80
2021,06,07,10,11,12.80
2021,06,07,10,12,12.80
2021,06,07,10,13,12.60
2021,06,07,10,14,12.50
2021,06,07,10,15,12.40
2021,06,07,10,16,12.40
2021,06,07,10,17,12.40
2021,06,07,10,18,12.50
2021,06,07,10,19,12.70
2021,06,07,10,20,12.70
2021,06,07,10,21,12.80
2021,06,07,10,22,12.80
2021,06,07,10,23,12.80
2021,06,07,10,24,12.90
2021,06,07,10,25,13.10
2021,06,07,10,26,13.10
2021,06,07,10,27,13.00
2021,06,07,10,28,12.90
2021,06,07,10,29,12.80
2021,06,07,10,30,12.70
2021,06,07,10,31,12.60
2021,06,07,10,32,12.70
2021,06,07,10,33,12.70
2021,06,07,10,34,12.60
2021,06,07,10,35,12.60
2021,06,07,10,36,12.60
2021,06,07,10,37,12.60
2021,06,07,10,38,12.60
2021,06,07,10,39,12.60
2021,06,07,10,40,12.60
2021,06,07,10,41,12.50
2021,06,07,10,42,12.50
2021,06,07,10,43,12.60
2021,06,07,10,44,12.70
2021,06,07,10,45,12.70
2021,06,07,10,46,12.80
2021,06,07,10,47,12.90
2021,06,07,10,48,13.00
2021,06,07,10,49,13.10
2021,06,07,10,50,13.20
2021,06,07,10,51,13.30
2021,06,07,10,52,13.30
2021,06,07,10,53,13.20
2021,06,07,10,54,13.00
2021,06,07,10,55,12.80
2021,06,07,10,56,12.80
2021,06,07,10,57,12.70
2021,06,07,10,58,12.60
2021,06,07,10,59,12.40
2021,06,07,11,00,12.40
2021,06,07,11,01,12.40
2021,06,07,11,02,12.30
2021,06,07,11,03,12.20
2021,06,07,11,04,12.10
2021,06,07,11,05,12.10
2021,06,07,11,06,12.00
2021,06,07,11,07,11.90
2021,06,07,11,08,11.80
2021,06,07,11,09,11.90
2021,06,07,11,10,12.00
2021,06,07,11,11,12.10
2021,06,07,11,12,12.10
2021,06,07,11,13,12.20
2021,06,07,11,14,12.10
2021,06,07,11,15,12.10
2021,06,07,11,16,12.00
2021,06,07,11,17,12.00
2021,06,07,11,18,11.90
2021,06,07,11,19,11.90
2021,06,07,11,20,11.80
2021,06,07,11,21,11.80
2021,06,07,11,22,11.80
2021,06,07,11,23,11.80
2021,06,07,11,24,11.80
2021,06,07,11,25,11.80
2021,06,07,11,26,11.80
2021,06,07,11,27,11.90
2021,06,07,11,28,11.90
2021,06,07,11,29,11.90
2021,06,07,11,30,11.90
2021,06,07,11,31,12.00
2021,06,07,11,32,12.20
2021,06,07,11,33,12.20
2021,06,07,11,34,12.20
2021,06,07,11,35,12.30
2021,06,07,11,36,12.30
2021,06,07,11,37,12.20
2021,06,07,11,38,12.10
2021,06,07,11,39,12.00
2021,06,07,11,40,11.90
2021,06,07,11,41,11.80
2021,06,07,11,42,11.80
2021,06,07,11,43,11.90
2021,06,07,11,44,11.90
2021,06,07,11,45,11.90
2021,06,07,11,46,11.90
2021,06,07,11,47,11.90
2021,06,07,11,48,11.90
2021,06,07,11,49,11.90
2021,06,07,11,50,11.90
2021,06,07,11,51,12.00
2021,06,07,11,52,12.10
2021,06,07,11,53,12.30
2021,06,07,11,54,12.30
2021,06,07,11,55,12.50
2021,06,07,11,56,12.60
2021,06,07,11,57,12.80
2021,06,07,11,58,12.90
2021,06,07,11,59,12.90
2021,06,07,12,00,12.80
2021,06,07,12,01,12.70
2021,06,07,12,02,12.60
2021,06,07,12,03,12.60
2021,06,07,12,04,12.60
2021,06,07,12,05,12.60
2021,06,07,12,06,12.70
2021,06,07,12,07,12.70
2021,06,07,12,08,12.80
2021,06,07,12,09,12.80
2021,06,07,12,10,12.80
2021,06,07,12,11,12.90
2021,06,07,12,12,13.00
2021,06,07,12,13,13.00
2021,06,07,12,14,12.90
2021,06,07,12,15,12.70
2021,06,07,12,16,12.60
2021,06,07,12,17,12.70
2021,06,07,12,18,12.70
2021,06,07,12,19,12.70
2021,06,07,12,20,12.80
2021,06,07,12,21,13.00
2021,06,07,12,22,13.00
2021,06,07,12,23,13.00
2021,06,07,12,24,13.00
2021,06,07,12,25,13.00
2021,06,07,12,26,12.90
2021,06,07,12,27,12.80
2021,06,07,12,28,12.90
2021,06,07,12,29,13.00
2021,06,07,12,30,13.10
2021,06,07,12,31,13.00
2021,06,07,12,32,12.80
2021,06,07,12,33,12.80
2021,06,07,12,34,12.70
2021,06,07,12,35,12.50
2021,06,07,12,36,12.40
2021,06,07,12,37,12.40
2021,06,07,12,38,12.30
2021,06,07,12,39,12.20
2021,06,07,12,40,12.20
2021,06,07,12,41,12.20
2021,06,07,12,42,12.20
2021,06,07,12,43,12.20
2021,06,07,12,44,12.30
2021,06,07,12,45,12.50
2021,06,07,12,46,12.60
2021,06,07,12,47,12.70
2021,06,07,12,48,12.70
2021,06,07,12,49,12.60
2021,06,07,12,50,12.50
2021,06,07,12,51,12.50
2021,06,07,12,52,12.40
2021,06,07,12,53,12.40
2021,06,07,12,54,12.40
2021,06,07,12,55,12.50
2021,06,07,12,56,12.60
2021,06,07,12,57,12.60
2021,06,07,12,58,12.70
2021,06,07,12,59,12.70
2021,06,07,13,00,12.80
2021,06,07,13,01,12.90
2021,06,07,13,02,13.00
2021,06,07,13,03,13.00
2021,06,07,13,04,13.10
2021,06,07,13,05,13.00
2021,06,07,13,06,12.90
2021,06,07,13,07,12.90
2021,06,07,13,08,12.90
2021,06,07,13,09,13.00
2021,06,07,13,10,13.10
2021,06,07,13,11,13.20
2021,06,07,13,12,13.10
2021,06,07,13,13,13.00
2021,06,07,13,14,13.00
2021,06,07,13,15,12.90
2021,06,07,13,16,12.90
2021,06,07,13,17,13.00
2021,06,07,13,18,13.00
2021,06,07,13,19,12.90
2021,06,07,13,20,12.80
2021,06,07,13,21,12.70
2021,06,07,13,22,12.60
2021,06,07,13,23,12.60
2021,06,07,13,24,12.60
2021,06,07,13,25,12.70
2021,06,07,13,26,12.80
2021,06,07,13,27,12.80
2021,06,07,13,28,13.00
2021,06,07,13,29,13.10
2021,06,07,13,30,13.10
2021,06,07,13,31,13.20
2021,06,07,13,32,13.10
2021,06,07,13,33,13.10
2021,06,07,13,34,13.10
2021,06,07,13,35,13.00
2021,06,07,13,36,13.00
2021,06,07,13,37,13.10
2021,06,07,13,38,13.20
2021,06,07,13,39,13.20
2021,06,07,13,40,13.20
2021,06,07,13,41,13.10
2021,06,07,13,42,13.10
2021,06,07,13,43,13.10
2021,06,07,13,44,13.00
2021,06,07,13,45,12.90
2021,06,07,13,46,12.80
2021,06,07,13,47,12.70
2021,06,07,13,48,12.70
2021,06,07,13,49,12.70
2021,06,07,13,50,12.70
2021,06,07,13,51,12.70
2021,06,07,13,52,12.80
2021,06,07,13,53,12.90
2021,06,07,13,54,12.90
2021,06,07,13,55,12.90
2021,06,07,13,56,13.00
2021,06,07,13,57,13.10
2021,06,07,13,58,13.30
2021,06,07,13,59,13.50
2021,06,07,14,00,13.70
2021,06,07,14,01,13.70
2021,06,07,14,02,13.60
2021,06,07,14,03,13.60
2021,06,07,14,04,13.50
2021,06,07,14,05,13.50
2021,06,07,14,06,13.50
2021,06,07,14,07,13.60
2021,06,07,14,08,13.70
2021,06,07,14,09,13.60
2021,06,07,14,10,13.60
2021,06,07,14,11,13.70
2021,06,07,14,12,13.70
2021,06,07,14,13,13.70
2021,06,07,14,14,13.70
2021,06,07,14,15,13.70
2021,06,07,14,16,13.80
2021,06,07,14,17,13.80
2021,06,07,14,18,13.90
2021,06,07,14,19,13.80
2021,06,07,14,20,13.80
2021,06,07,14,21,13.90
2021,06,07,14,22,14.10
2021,06,07,14,23,14.40
2021,06,07,14,24,14.50
2021,06,07,14,25,14.50
2021,06,07,14,26,14.50
2021,06,07,14,27,14.40
2021,06,07,14,28,14.30
2021,06,07,14,29,14.10
2021,06,07,14,30,14.00
2021,06,07,14,31,14.00
2021,06,07,14,32,13.90
2021,06,07,14,33,13.90
2021,06,07,14,34,13.90
2021,06,07,14,35,13.90
2021,06,07,14,36,13.60
2021,06,07,14,37,13.50
2021,06,07,14,38,13.60
2021,06,07,14,39,13.70
2021,06,07,14,40,13.70
2021,06,07,14,41,13.80
2021,06,07,14,42,14.00
2021,06,07,14,43,14.10
2021,06,07,14,44,14.10
2021,06,07,14,45,14.10
2021,06,07,14,46,14.30
2021,06,07,14,47,14.40
2021,06,07,14,48,14.50
2021,06,07,14,49,14.50
2021,06,07,14,50,14.50
2021,06,07,14,51,14.40
2021,06,07,14,52,14.10
2021,06,07,14,53,13.90
2021,06,07,14,54,13.80
2021,06,07,14,55,13.60
2021,06,07,14,56,13.60
2021,06,07,14,57,13.50
2021,06,07,14,58,13.40
2021,06,07,14,59,13.40
2021,06,07,15,00,13.60
2021,06,07,15,01,13.80
2021,06,07,15,02,14.00
2021,06,07,15,03,14.20
2021,06,07,15,04,14.20
2021,06,07,15,05,14.30
2021,06,07,15,06,14.30
2021,06,07,15,07,14.20
2021,06,07,15,08,14.10
2021,06,07,15,09,14.10
2021,06,07,15,10,14.10
2021,06,07,15,11,14.10
2021,06,07,15,12,14.10
2021,06,07,15,13,14.10
2021,06,07,15,14,14.20
2021,06,07,15,15,14.30
2021,06,07,15,16,14.30
2021,06,07,15,17,14.30
2021,06,07,15,18,14.10
2021,06,07,15,19,13.90
2021,06,07,15,20,13.90
2021,06,07,15,21,13.80
2021,06,07,15,22,13.70
2021,06,07,15,23,13.70
2021,06,07,15,24,13.70
2021,06,07,15,25,13.80
2021,06,07,15,26,13.80
2021,06,07,15,27,13.90
2021,06,07,15,28,14.00
2021,06,07,15,29,14.10
2021,06,07,15,30,14.10
2021,06,07,15,31,14.20
2021,06,07,15,32,14.30
2021,06,07,15,33,14.50
2021,06,07,15,34,14.50
2021,06,07,15,35,14.30
2021,06,07,15,36,14.10
2021,06,07,15,37,14.00
2021,06,07,15,38,13.80
2021,06,07,15,39,13.90
2021,06,07,15,40,13.90
2021,06,07,15,41,14.00
2021,06,07,15,42,13.90
2021,06,07,15,43,13.90
2021,06,07,15,44,14.00
2021,06,07,15,45,14.10
2021,06,07,15,46,14.20
2021,06,07,15,47,14.30
2021,06,07,15,48,14.30
2021,06,07,15,49,14.20
2021,06,07,15,50,14.20
2021,06,07,15,51,14.20
2021,06,07,15,52,14.20
2021,06,07,15,53,14.30
2021,06,07,15,54,14.50
2021,06,07,15,55,14.80
2021,06,07,15,56,14.90
2021,06,07,15,57,15.00
2021,06,07,15,58,15.10
2021,06,07,15,59,15.10
2021,06,07,16,00,15.10
2021,06,07,16,01,15.10
2021,06,07,16,02,15.10
2021,06,07,16,03,15.10
2021,06,07,16,04,14.90
2021,06,07,16,05,14.80
2021,06,07,16,06,14.70
2021,06,07,16,07,14.70
2021,06,07,16,08,14.70
2021,06,07,16,09,14.80
2021,06,07,16,10,14.80
2021,06,07,16,11,14.80
2021,06,07,16,12,14.80
2021,06,07,16,13,14.90
2021,06,07,16,14,14.90
2021,06,07,16,15,15.00
2021,06,07,16,16,15.00
2021,06,07,16,17,15.20
2021,06,07,16,18,15.40
2021,06,07,16,19,15.50
2021,06,07,16,20,15.60
2021,06,07,16,21,15.70
2021,06,07,16,22,15.70
2021,06,07,16,23,15.70
2021,06,07,16,24,15.60
2021,06,07,16,25,15.60
2021,06,07,16,26,15.50
2021,06,07,16,27,15.40
2021,06,07,16,28,15.30
2021,06,07,16,29,15.10
2021,06,07,16,30,14.80
2021,06,07,16,31,14.70
2021,06,07,16,32,14.60
2021,06,07,16,33,14.50
2021,06,07,16,34,14.50
2021,06,07,16,35,14.50
2021,06,07,16,36,14.70
2021,06,07,16,37,14.80
2021,06,07,16,38,14.80
2021,06,07,16,39,15.00
2021,06,07,16,40,15.10
2021,06,07,16,41,15.20
2021,06,07,16,42,15.10
2021,06,07,16,43,15.10
2021,06,07,16,44,15.10
2021,06,07,16,45,15.00
2021,06,07,16,46,14.90
2021,06,07,16,47,14.80
2021,06,07,16,48,14.70
2021,06,07,16,49,14.60
2021,06,07,16,50,14.60
2021,06,07,16,51,14.60
2021,06,07,16,52,14.70
2021,06,07,16,53,14.80
2021,06,07,16,54,14.80
2021,06,07,16,55,14.80
2021,06,07,16,56,14.70
2021,06,07,16,57,14.70
2021,06,07,16,58,14.80
2021,06,07,16,59,14.80
2021,06,07,17,00,14.90
2021,06,07,17,01,15.00
2021,06,07,17,02,15.20
2021,06,07,17,03,15.20
2021,06,07,17,04,15.30
2021,06,07,17,05,15.30
2021,06,07,17,06,15.40
2021,06,07,17,07,15.40
2021,06,07,17,08,15.50
2021,06,07,17,09,15.60
2021,06,07,17,10,15.60
2021,06,07,17,11,15.60
2021,06,07,17,12,15.60
2021,06,07,17,13,15.60
2021,06,07,17,14,15.60
2021,06,07,17,15,15.40
2021,06,07,17,16,15.20
2021,06,07,17,17,15.10
2021,06,07,17,18,14.90
2021,06,07,17,19,14.90
2021,06,07,17,20,14.80
2021,06,07,17,21,14.90
2021,06,07,17,22,14.90
2021,06,07,17,23,15.00
2021,06,07,17,24,15.00
2021,06,07,17,25,14.90
2021,06,07,17,26,14.80
2021,06,07,17,27,14.60
2021,06,07,17,28,14.50
2021,06,07,17,29,14.50
2021,06,07,17,30,14.50
2021,06,07,17,31,14.60
2021,06,07,17,32,14.70
2021,06,07,17,33,14.80
2021,06,07,17,34,14.80
2021,06,07,17,35,14.90
2021,06,07,17,36,14.80
2021,06,07,17,37,14.80
2021,06,07,17,38,14.90
2021,06,07,17,39,14.80
2021,06,07,17,40,14.80